Regional Weather Roundup
Issued by NWS Charleston, SC

Current Version | Previous Version | Graphics & Text | Print | Product List | Glossary On
Versions: 1 2 3 4 5 6 7 8 9 10 11 12 13 14 15 16 17 18 19 20 21 22 23 24 25 26 27 28 29 30 31 32 33 34 35 36 37 38 39 40 41 42 43 44 45 46 47 48 49 50
000
ASUS42 KCHS 031412
RWRCHS

REGIONAL WEATHER ROUNDUP
NATIONAL WEATHER SERVICE CHARLESTON SC
1000 AM EDT MON AUG 03 2015

NOTE: "FAIR" INDICATES FEW OR NO CLOUDS BELOW 12,000 FEET WITH NO
SIGNIFICANT WEATHER AND/OR OBSTRUCTIONS TO VISIBILITY.

NOT ALL STATIONS ARE QUALITY CONTROLLED BY THE NATIONAL
WEATHER SERVICE. USE DATA WITH CAUTION...ESPECIALLY
DEWPOINT OBSERVATIONS.

SCZ027-030-031-034>040-042>050-031500-
...SOUTHEAST SOUTH CAROLINA...

CITY           SKY/WX    TMP DP  RH WIND       PRES   REMARKS
N CHARLESTON   PTSUNNY   84  74  71 S10G20    29.94S HX  91
WATERFRONT PRK   N/A     83  75  76 S12       29.91S HX  90
MOUNT PLEASANT LGT RAIN  84  75  74 S12       29.94S HX  92
JOHNS ISLAND   FAIR      84  75  74 S13       29.94S HX  92
PINOPOLIS      NOT AVBL
MONCKS CORNER  FAIR      82  75  78 SW7       29.95R
SUMMERVILLE    PTSUNNY   81  77  89 CALM      29.95S
BEAUFORT MCAS  PTSUNNY   83  75  77 S6        29.92F HX  90
BEAUFORT ARPT  FAIR      82  75  78 SE7       29.92F
HILTON HEAD IS MOSUNNY   82  73  74 S7        29.94R
WALTERBORO     CLOUDY    79  77  94 E3        29.95S
ALLENDALE      CLOUDY    79  75  89 CALM      29.93S

...SOUTHERN MIDLANDS AND PEE DEE...

CITY           SKY/WX    TMP DP  RH WIND       PRES   REMARKS
GEORGETOWN     NOT AVBL
KINGSTREE      NOT AVBL
ORANGEBURG     CLOUDY    78  73  84 CALM      29.96R
BARNWELL       CLOUDY    75  75 100 CALM      29.96R FOG
AIKEN          CLOUDY    75  72  88 CALM      29.99S
MANNING        HVY RAIN  77  75  94 N3        29.95S
COLUMBIA       MOSUNNY   83  71  67 CALM      29.94S
SUMTER         PTSUNNY   81  72  72 S5        29.93S
FLORENCE       CLOUDY    81  73  76 S6        29.95S
MYRTLE BEACH   PTSUNNY   84  73  70 SW8       29.97S HX  91
N MYRTLE BEACH CLOUDY    83  73  72 SW12      29.94F

$$

GAZ063-065-086>088-099>101-113>116-118-119-134>141-150-031500-
...SOUTHEAST GEORGIA...

CITY           SKY/WX    TMP DP  RH WIND       PRES   REMARKS
SAVANNAH ARPT  PTSUNNY   84  75  74 S9        29.91F HX  92
HUNTER AAF     PTSUNNY   84  77  79 SE12      29.89S HX  94
FORT STEWART   PTSUNNY   82  73  74 SE6       29.89R
STATESBORO     CLOUDY    78  78 100 SE3       29.93S
SYLVANIA       PTSUNNY   80  78  94 CALM      29.94S
CLAXTON        NOT AVBL

...CSRA...CENTRAL AND FAR SOUTHEAST GEORGIA...

CITY           SKY/WX    TMP DP  RH WIND       PRES   REMARKS
THOMSON        CLOUDY    80  77  90 E3        29.99S
AUGUSTA-BUSH   PTSUNNY   80  73  79 CALM      29.93S
AUGUSTA-DANIEL CLOUDY    79  72  79 CALM      29.96R
SWAINSBORO     CLOUDY   N/A N/A N/A SE6       29.94S
VIDALIA        CLOUDY    79  73  83 E3        29.93R
EASTMAN        CLOUDY    79  79 100 NE5       29.95R
HAZLEHURST     CLOUDY    78  78  98 CALM      29.91S
ALMA           CLOUDY    77  73  87 NE3       29.90S
WAYCROSS       CLOUDY    79  78  94 E5        29.89F
JESUP          CLOUDY    81  77  89 CALM      29.90F
BAXLEY         DRIZZLE   79  73  83 E3        29.91S
BRUNSWICK      CLOUDY    79  75  89 S5        29.90S
SAINT SIMONS   CLOUDY    79  74  84 S12       29.89S

$$

SCZ027-028-034-036>038-045-046-048>050-GAZ119-141-031500-
...LAKE AND SUPPLEMENTAL COASTAL OBSERVATIONS...

STATION/POSITION TIME  TEMP    WIND        PRES    WAVE   SWELL
                       AIR SEA DIR/SP/G            HT/PER HT/PER/DIR
                 (UTC) (F)     (DEG/KT/KT) (MB)    (FT/S) (FT/S/D)
UPR LAKE MARION  NOT AVBL
WINYAH BAY       NOT AVBL
LAKE MURRAY      1300   77      90/  2/  4 1013.9R
ACE BASIN NERRS  NOT AVBL
FORT PULASKI     1300   82 85  140/  9/ 17 1013.6R
SAPELO ISLAND    1300   82     150/ 10     1012.0S

$$

ANZ835-935-AMZ111-154-330-350-352-354-370-450-454-472-031500-
...C-MAN AND BUOY OBSERVATIONS...

STATION/POSITION TIME  TEMP    WIND        PRES    WAVE   SWELL
                       AIR SEA DIR/SP/G            HT/PER HT/PER/DIR
                 (UTC) (F)     (DEG/KT/KT) (MB)    (FT/S) (FT/S/D)
BUOY 41004       1350   83 83  190/ 14/ 16 1013.3S   4/ 6   2/ 8
BUOY 41008       1350   81 83  170/ 17/ 21 1012.7S   4/ 6   2/ 70/12
FOLLY BEACH CMAN 1300   82     200/ 10/ 12 1013.9R
CAPERS NEARSHORE 1308   82     210/ 10/ 16 1014.0R
FRIPP NEARSHORE  1300   83     190/ 14/ 17 1013.0R


STATION/POSITION TIME  TEMP    WIND        PRES    WAVE   SWELL
                       AIR SEA DIR/SP/G            HT/PER HT/PER/DIR
                 (UTC) (F)     (DEG/KT/KT) (MB)    (FT/S) (FT/S/D)
5E ST. MARYS GA  1321      82                N/A     5/ 5   2/100/11
FRYING PAN BUOY  1350   81 83  200/ 21/ 25 1014.4F   5/ 7   2/ 80/11
BUOY 41025       1350   75 84  340/ 10/ 12 1015.6R   5/ 8   5/210/ 8
CAPE LOOKOUT NC  1300   78     280/ 11/ 12 1014.5S
BUOY 41002       1350   83 81  200/ 14/ 16 1017.4R   5/ 6   2/160/ 7
BUOY 41010       1320   83 84  170/ 16/ 17 1015.3R
ST AUGUSTINE FL  1400   79 78  170/ 20/ 21 1012.5R


$$


USA.gov is the U.S. government's official web portal to all federal, state and local government web resources and services.